Location: Eekwerd
(53.3234°N, 6.7984°E)
Time: 08:33:19
(UTC+00:00)

Cosmos 1937 Rocket - Pass Details

Date: 15 May 2026
Orbit: 743 x 774 km, 74.0° (Epoch: 6 June)

Event Time Altitude Azimuth Distance (km) Brightness Sun altitude
Rises 22:19:46 0° 334° (NNW) 3,209 8.4 -16.1°
Reaches altitude 10° 22:22:09 10° 335° (NNW) 2,277 7.3 -16.2°
Maximum altitude 22:27:19 82° 63° (ENE) 759 3.4 -16.4°
Enters shadow 22:30:09 27° 149° (SSE) 1,401 4.3 -16.5°
